Погода в Инкермане

Россия / Республика Крым     44°36′52″N   33°36′31″E
темп.,
°C
ветер,
м/с
пор.,
м/с
влажн.,
%
обл.,
%
осадки,
мм/ч
давл.,
гПа
погр.,
м
22 апреля, чт
чт2200:00+10ююв34845 0.0 102185
03:00+10ююв23875 0.0 102146
06:00+10юв2284100 0.0 102229
09:00+11ю33766 0.0 1023219
12:00+11ююз44735 0.0 1023345
15:00+12ююз55744 0.0 1023353
18:00+12ю44760 0.0 1023221
21:00+11ююв44800 0.0 102465
23 апреля, пт
пт2300:00+10юв46820 0.0 1023124
03:00+10юв578298 0.0 1022156
06:00+10юв6881100 0.0 1022199
09:00+12юв81076100 0.0 1022368
12:00+13юв81069100 0.0 1021399
15:00+13юв81068100 0.0 1020347
18:00+12юв7971100 0.0 1019225
21:00+11юв69795 0.0 1020206
24 апреля, сб
сб2400:00+11ююв468342 0.0 1020136
03:00+10юв22885 0.0 101942
06:00+10сз11865 0.0 101911
09:00+11с568464 0.0 1020343
12:00+12ссз777553 0.0 1021376
15:00+12ссз6668100 0.0 1021341
18:00+11ссз786849 0.0 1021386
21:00+11с71069100 0.0 1023411
25 апреля, вс
вс2500:00+9ссв71068100 0.0 1022479
03:00+9ссв6969100 0.0 1022362
06:00+9ссв5759100 0.0 1022222
09:00+10св5645100 0.0 1021445
12:00+11в2347100 0.0 1021571
15:00+11ю4358100 0.0 1021471
18:00+10ююв445865 0.0 1020467
21:00+10вюв126361 0.0 1020172
26 апреля, пн
пн2600:00+9с3362100 0.0 1020256
03:00+9ссз3357100 0.0 1019344
06:00+7ссв33585 0.0 1018159
09:00+10ссв2345100 0.0 1019284
12:00+12сз33485 0.0 1019482
15:00+12сз67525 0.0 1019460
18:00+11сз45580 0.0 1019371
21:00+10с22670 0.0 102097